sat.trackr.live / text

‹ back to catalog

STARLINK-4725

NORAD 53700 · 2022-107A

PAYLOAD ACTIVE UNKNOWN

§ Identity

Operator
Country
US
Launch date
2022-09-05
Launch site
AFETR
Launch vehicle
Mass (kg)
RCS (m²)

Purposes: comms

External: N2YO · Heavens-Above · Gunter

§ Orbital elements

Epoch: 2026-05-24T18:19:09.552000Z

Period
95.44 min
Inclination
53.2155°
Eccentricity
0.0001165
Mean motion
15.08835496 rev/d
Perigee alt
539.0 km
Apogee alt
540.6 km
Semi-major
6,917.9 km
B*
3.6351e-6
RAAN
262.2393°
Arg perigee
87.3956°
Mean anomaly
272.7169°
Rev number
20,634

§ Raw data

STARLINK-47251 53700U 22107A   26144.76330500 -.00000230  00000+0  36351-5 0  99962 53700  53.2155 262.2393 0001165  87.3956 272.7169 15.08835496206344

JSON: /api/v1/satellites/53700 · /tle

For live sub-satellite position, see the globe view (requires WebGL).

§ Visibility from observer

Set your observer location to see the next 7 days of passes ≥ 10°. The values pass through the URL so the page stays shareable.

No JS? Fill the form by hand. The geolocation button needs JavaScript.